Date String (YYYY-MM-DD hh:mm:ss) UTC,Instrument flags,Ambient pressure (hPa),Sample flow (lpm),Bypass flow (lpm),Sample temperature (°C),Ambient temperature (°C),ASC tube jacket temperature (°C),LED temperature (°C),Box temperature (°C),Sample RH (%),Span deviation,Mass concentration (μg/m³),Mass concentration (μg/m³),Mass concentration (μg/m³)
DateTimeUTC,F1_M11,P_M11,Q1_M11,Q2_M11,T1_M11,T2_M11,T3_M11,T4_M11,T5_M11,U1_M11,ZSPAN_M11,X0_M11,X2_M11,X1_M11
2023-02-14 01:00:00,,0809.5,5.00,0.00,24.9,22.9,00.0,33.9,26.7,12.3,0005.8,0027.76,0011.49,0009.89
2023-02-14 01:01:00,,0809.5,5.00,0.00,24.9,22.8,00.0,33.9,26.6,12.5,0005.6,0028.12,0011.59,0009.97
2023-02-14 01:02:00,,0809.6,4.99,0.00,24.9,22.8,00.0,33.9,26.6,12.3,0004.7,0028.58,0011.74,0010.08
2023-02-14 01:03:00,,0809.6,5.01,0.00,24.8,22.7,00.0,33.9,26.6,12.1,0003.6,0028.51,0011.78,0010.14
2023-02-14 01:04:00,,0809.5,5.00,0.00,24.8,22.7,00.0,33.8,26.5,12.8,0004.1,0029.52,0011.91,0010.20
2023-02-14 01:05:00,,0809.5,5.00,0.00,24.8,22.6,00.0,33.8,26.5,13.0,0003.5,0028.50,0012.06,0010.26
2023-02-14 01:06:00,,0809.6,5.00,0.00,24.7,22.6,00.0,33.8,26.4,13.0,0003.3,0028.30,0012.13,0010.32
2023-02-14 01:07:00,,0809.5,5.01,0.00,24.7,22.5,00.0,33.8,26.4,13.0,0003.9,0028.42,0012.22,0010.38
2023-02-14 01:08:00,,0809.5,5.00,0.00,24.7,22.5,00.0,33.8,26.4,13.0,0003.2,0028.16,0012.29,0010.42
2023-02-14 01:09:00,,0809.5,5.00,0.00,24.7,22.6,00.0,33.7,26.4,12.9,0002.1,0028.54,0012.40,0010.46
2023-02-14 01:10:00,,0809.6,5.01,0.00,24.7,22.6,00.0,33.7,26.5,13.0,0001.8,0028.21,0012.45,0010.52
2023-02-14 01:11:00,,0809.6,5.01,0.00,24.7,22.7,00.0,33.7,26.5,13.0,0001.5,0028.36,0012.51,0010.56
2023-02-14 01:12:00,,0809.5,4.99,0.00,24.7,22.7,00.0,33.7,26.4,13.0,0002.1,0030.60,0012.62,0010.62
2023-02-14 01:13:00,,0809.5,5.00,0.00,24.7,22.7,00.0,33.7,26.5,13.0,0003.3,0030.74,0012.61,0010.64
2023-02-14 01:14:00,,0809.6,5.00,0.00,24.7,22.8,00.0,33.7,26.5,13.0,0002.9,0031.34,0012.66,0010.71
2023-02-14 01:15:00,,0809.7,5.00,0.00,24.7,22.8,00.0,33.7,26.4,13.0,0001.3,0030.23,0012.59,0010.71
2023-02-14 01:16:00,,0809.7,5.01,0.00,24.7,22.7,00.0,33.6,26.4,13.0,0002.1,0030.44,0012.51,0010.70
2023-02-14 01:17:00,,0809.7,5.00,0.00,24.6,22.7,00.0,33.6,26.4,13.0,0001.6,0030.90,0012.56,0010.70
2023-02-14 01:18:00,,0809.6,5.00,0.00,24.6,22.6,00.0,33.6,26.4,13.1,0001.4,0031.11,0012.52,0010.67
2023-02-14 01:19:00,,0809.5,5.00,0.00,24.6,22.5,00.0,33.6,26.4,13.1,0001.4,0031.26,0012.54,0010.67
2023-02-14 01:20:00,,0809.5,5.00,0.00,24.6,22.5,00.0,33.6,26.3,13.1,0001.6,0032.14,0012.64,0010.70
2023-02-14 01:21:00,,0809.5,5.00,0.00,24.6,22.5,00.0,33.6,26.3,13.1,0002.1,0032.42,0012.70,0010.74
2023-02-14 01:22:00,,0809.5,5.00,0.00,24.6,22.6,00.0,33.6,26.4,13.1,0002.1,0031.23,0012.74,0010.77
2023-02-14 01:23:00,,0809.6,5.01,0.00,24.6,22.6,00.0,33.5,26.4,13.0,0001.8,0029.60,0012.78,0010.82
2023-02-14 01:24:00,,0809.6,5.00,0.00,24.6,22.6,00.0,33.5,26.4,12.9,0001.0,0029.59,0012.92,0010.93
2023-02-14 01:25:00,,0809.7,5.00,0.00,24.6,22.5,00.0,33.5,26.3,12.9,0001.4,0029.04,0013.03,0011.01
2023-02-14 01:26:00,,0809.7,5.00,0.00,24.5,22.5,00.0,33.5,26.3,12.9,0002.0,0029.18,0013.15,0011.11
2023-02-14 01:27:00,,0809.7,5.01,0.00,24.5,22.4,00.0,33.5,26.2,12.8,0002.0,0029.27,0013.26,0011.22
2023-02-14 01:28:00,,0809.7,5.02,0.00,24.5,22.4,00.0,33.5,26.2,12.7,0002.2,0028.82,0013.34,0011.32
2023-02-14 01:29:00,,0809.6,5.01,0.00,24.5,22.4,00.0,33.5,26.2,12.4,0002.1,0028.45,0013.45,0011.43
2023-02-14 01:30:00,,0809.6,5.01,0.00,24.5,22.4,00.0,33.4,26.2,12.3,0002.1,0028.09,0013.50,0011.52
2023-02-14 01:31:00,,0809.6,4.99,0.00,24.4,22.5,00.0,33.4,26.2,12.4,0003.0,0027.99,0013.50,0011.60
2023-02-14 01:32:00,,0809.5,5.00,0.00,24.4,22.5,00.0,33.4,26.2,12.4,0002.5,0027.93,0013.59,0011.67
2023-02-14 01:33:00,,0809.6,5.00,0.00,24.4,22.5,00.0,33.4,26.2,12.3,0002.2,0027.98,0013.66,0011.73
2023-02-14 01:34:00,,0809.6,5.00,0.00,24.4,22.5,00.0,33.4,26.2,12.5,0001.9,0028.56,0013.66,0011.76
2023-02-14 01:35:00,,0809.5,4.99,0.00,24.4,22.4,00.0,33.4,26.1,12.7,0001.6,0029.92,0013.72,0011.78
2023-02-14 01:36:00,,0809.5,5.00,0.00,24.4,22.4,00.0,33.4,26.1,12.8,0001.7,0031.07,0013.69,0011.77
2023-02-14 01:37:00,,0809.5,5.00,0.00,24.4,22.4,00.0,33.4,26.1,12.8,0002.4,0031.12,0013.76,0011.77
2023-02-14 01:38:00,,0809.5,5.00,0.00,24.3,22.3,00.0,33.3,26.0,12.8,0001.8,0030.78,0013.81,0011.79
2023-02-14 01:39:00,,0809.5,5.00,0.00,24.3,22.2,00.0,33.3,26.0,12.7,0002.0,0030.99,0013.86,0011.77
2023-02-14 01:40:00,,0809.5,5.00,0.00,24.3,22.3,00.0,33.3,26.0,12.7,0001.9,0031.51,0013.86,0011.77
2023-02-14 01:41:00,,0809.5,5.00,0.00,24.3,22.3,00.0,33.3,26.0,12.6,0002.4,0031.79,0013.91,0011.79
2023-02-14 01:42:00,,0809.5,5.00,0.00,24.3,22.3,00.0,33.3,26.0,12.7,0002.3,0031.33,0013.93,0011.79
2023-02-14 01:43:00,,0809.5,5.00,0.00,24.3,22.3,00.0,33.3,26.1,12.8,0002.6,0031.83,0013.93,0011.79
2023-02-14 01:44:00,,0809.5,5.01,0.00,24.3,22.3,00.0,33.2,26.0,12.7,0003.1,0032.19,0013.89,0011.79
2023-02-14 01:45:00,,0809.4,5.00,0.00,24.3,22.3,00.0,33.2,26.0,12.6,0003.2,0031.11,0013.86,0011.79
2023-02-14 01:46:00,,0809.4,4.99,0.00,24.2,22.2,00.0,33.2,25.9,12.6,0002.9,0030.20,0013.75,0011.74
2023-02-14 01:47:00,,0809.4,4.99,0.00,24.2,22.1,00.0,33.2,25.9,12.7,0002.3,0029.20,0013.75,0011.71
2023-02-14 01:48:00,,0809.3,5.00,0.00,24.2,22.1,00.0,33.2,25.9,12.8,0001.8,0028.47,0013.64,0011.66
2023-02-14 01:49:00,,0809.3,4.99,0.00,24.2,22.1,00.0,33.2,25.9,13.1,0001.9,0028.97,0013.60,0011.63
2023-02-14 01:50:00,,0809.3,5.00,0.00,24.1,22.0,00.0,33.2,25.9,13.1,0001.6,0029.57,0013.58,0011.61
2023-02-14 01:51:00,,0809.3,5.00,0.00,24.1,22.0,00.0,33.1,25.8,13.1,0001.6,0030.33,0013.58,0011.60
2023-02-14 01:52:00,,0809.3,4.98,0.00,24.1,22.0,00.0,33.1,25.7,13.1,0001.5,0030.47,0013.59,0011.58
2023-02-14 01:53:00,,0809.3,4.99,0.00,24.1,22.0,00.0,33.1,25.7,13.1,0001.2,0029.70,0013.56,0011.56
2023-02-14 01:54:00,,0809.3,5.00,0.00,24.1,21.9,00.0,33.1,25.7,13.1,0001.0,0029.40,0013.48,0011.52
2023-02-14 01:55:00,,0809.3,5.00,0.00,24.0,21.9,00.0,33.1,25.7,13.2,0000.9,0029.21,0013.45,0011.48
2023-02-14 01:56:00,,0809.3,5.00,0.00,24.0,21.9,00.0,33.1,25.7,13.0,0000.6,0029.26,0013.36,0011.42
2023-02-14 01:57:00,,0809.2,5.01,0.00,24.0,21.9,00.0,33.0,25.7,13.0,0001.3,0029.13,0013.34,0011.37
2023-02-14 01:58:00,,0809.2,5.00,0.00,24.0,21.9,00.0,33.0,25.6,13.0,0002.2,0030.72,0013.25,0011.34
2023-02-14 01:59:00,,0809.2,5.01,0.00,24.0,21.9,00.0,33.0,25.6,12.9,0003.0,0031.17,0013.23,0011.35
